www.pogodaiklimat.ru

Погода и климат >> Архив погоды >> Казахстан >> Алматы


АРХИВ ПОГОДЫ в Алматы

Время (UTC), дата Ветер
(напр.,м/с)
 
Видим.   Явления Облачность Т
(С)
Тd
(С)
f
(%)
Тe
(С)
Тes
(С)
Комфортность P
(гПа)
Po
(гПа)
Тmin
(С)
Tmax
(С)
R
(мм)
R24
(мм)
S
(см)
03 14.10 штиль 0 10 км ясно +14.6 +3.7 48 +15 +17 тепло 1013.5 917.7
06 14.10 штиль 0 10 км ясно +20.4 +2.2 30 +20 +30 тепло 1011.0 917.2 +8.1
09 14.10 СЗ 1 10 км 4/1 1000 м
[Cu med, cong Ci fib]
+22.8 +2.6 27 +22 +28 комфорт 1009.1 916.2
12 14.10 штиль 0 10 км 10/0
[Ci fib]
+18.6 +5.1 41 +19 +19 тепло 1011.6 917.3
15 14.10 штиль 0 н/о 10/0
[Ci fib]
+15.3 -0.1 35 +15 +15 тепло 1014.5 918.8 +24.0
18 14.10 штиль 0 н/о 8/0
[Ci fib]
+16.0 -1.0 31 +16 +16 тепло 1015.2 919.6 +24.0
21 14.10 ЮЗ 1 н/о 5/0
[Ci fib]
+14.4 +1.0 40 +15 +15 тепло 1018.0 921.7
00 15.10 штиль 0
{3}
н/о ясно +12.7 +1.5 46 +13 +13 тепло 1018.5 921.6
03 15.10 штиль 0 10 км ясно +15.4 +1.3 38 +15 +17 тепло 1017.5 921.5
06 15.10 штиль 0 10 км ясно +20.0 +4.2 35 +20 +30 тепло 1014.8 920.6 +11.6
09 15.10 штиль 0 10 км 3/1 1000 м
[Cu hum Ci fib]
+20.4 +4.0 34 +21 +27 комфорт 1013.4 919.4
12 15.10 штиль 0 10 км 6/0
[Ci sp]
+17.6 +3.0 38 +18 +18 тепло 1014.7 919.7
15 15.10 штиль 0 н/о 4/0
[Ci fib]
+12.4 +4.4 58 +12 +12 по сезону 1017.1 920.2 +21.0
18 15.10 штиль 0 н/о 3/0
[Ci fib]
+11.4 +4.2 61 +11 +11 тепло 1016.1 919.0 +21.0
21 15.10 штиль 0 н/о ясно +11.0 +3.1 58 +11 +11 тепло 1014.5 917.4
00 16.10 штиль 0
{3}
н/о ясно +8.4 +3.0 69 +8 +8 по сезону 1014.4 916.5
03 16.10 штиль 0 10 км ясно +13.4 +4.4 54 +13 +15 тепло 1013.3 917.1
06 16.10 штиль 0 10 км ясно +18.0 +4.0 39 +18 +28 тепло 1011.6 917.0 +8.1
09 16.10 С 1 10 км 8/3 1000 м
[Cb cap Ac trans Ci fib]
+19.0 +4.9 39 +20 +23 тепло 1011.1 916.9
12 16.10 штиль 0 10 км 9/3 1000 м
[Cu med, cong Ac trans Ci fib]
+16.8 +5.7 48 +17 +17 тепло 1013.1 918.0
15 16.10 штиль 0 н/о 8/3 1000 м
[Cu med, cong Ac trans Ci fib]
+13.3 +5.8 60 +13 +13 тепло 1014.8 918.5 +21.0
18 16.10 штиль 0 н/о 10/0
[Ci fib]
+13.7 +2.9 48 +14 +14 тепло 1016.3 920.0 +21.0
21 16.10 штиль 0 н/о 10/4 1000 м
[Cb cap Ac trans Ci sp]
+13.5 +4.0 53 +13 +13 тепло 1015.8 919.5
00 17.10 штиль 0
{3}
н/о 10/3 1000 м
[Cb cap Ac trans Ci sp]
+11.3 +4.3 62 +11 +11 тепло 1016.0 918.9
03 17.10 СВ 1 10 км 8/0
[Ci fib]
+16.2 +4.9 47 +17 +18 тепло 1014.2 918.9
06 17.10 штиль 0 10 км 1/0
[Ci fib]
+20.6 +5.2 36 +21 +30 комфорт 1011.4 917.6 +11.2
09 17.10 штиль 0 10 км ясно +21.1 +5.4 36 +22 +28 комфорт 1009.5 916.1
12 17.10 С 3 10 км ясно +19.0 +5.7 42 +20 +20 тепло 1010.5 916.4
15 17.10 штиль 0 н/о ясно +13.8 +4.2 52 +14 +14 тепло 1011.1 915.3 +22.0
18 17.10 штиль 0 н/о ясно +13.4 +3.7 52 +13 +13 тепло 1009.8 914.0 +22.0
21 17.10 штиль 0 н/о ясно +11.4 +1.5 51 +11 +11 тепло 1008.2 911.8
00 18.10 штиль 0
{5}
н/о ясно +12.0 +0.6 46 +12 +12 тепло 1006.1 910.1
03 18.10 З 2 10 км 10/0
[As trans]
+14.6 +1.1 40 +15 +15 тепло 1012.1 916.4
06 18.10 штиль 0 10 км 10/10 600 м
[Cb cap]
+14.6 +4.7 51 +15 +15 тепло 1014.9 919.0 +10.4
09 18.10 штиль 0 10 км слабый ливневой дождь 10/10 600 м
[Cb cap]
+7.1 +6.1 93 +6 +6 холодно 1022.9 923.9
12 18.10 штиль 0 10 км слабый ливневой дождь 10/10 600 м
[Cb cap]
+6.3 +4.5 88 +5 +5 холодно 1025.0 925.4
15 18.10 штиль 0 н/о слабый ливневой дождь 10/10 600 м
[Cb cap]
+6.1 +5.2 94 +5 +5 прохладно 1026.5 926.7 +16.9
18 18.10 штиль 0 н/о {ливн. осадки} 10/10 600 м
[Cb cap]
+6.6 +5.5 93 +6 +6 по сезону 1025.7 926.2 +16.9 7
21 18.10 штиль 0 н/о 10/6 600 м
[Cb cap Ac und Ci sp]
+6.6 +2.7 76 +6 +6 по сезону 1024.8 925.3
00 19.10 штиль 0
{8}
н/о 10/3 600 м
[Cb cap Ci sp]
+4.8 +3.9 94 +4 +4 по сезону 1026.6 926.3
03 19.10 штиль 0 10 км 10/3 600 м
[Cb cap Ci ing]
+6.3 +3.3 81 +5 +6 прохладно 1027.8 928.0
06 19.10 штиль 0 10 км ясно +12.4 +2.8 52 +12 +21 по сезону 1024.8 927.2 +4.5 0.0
09 19.10 штиль 0 10 км 8/4 1000 м
[Cu med, cong Ci ing]
+12.2 +1.9 49 +12 +15 по сезону 1024.1 926.5
12 19.10 С 1 10 км 10/6 600 м
[Cb cap Ac trans Ci fib]
+11.2 +1.1 50 +11 +11 по сезону 1026.6 928.4
15 19.10 штиль 0 н/о 10/4 600 м
[Cb cap Ac trans Ci sp]
+10.6 +3.1 60 +10 +10 по сезону 1028.5 930.0 +13.8
18 19.10 штиль 0 н/о 10/10 600 м
[Cb cap]
+9.7 +1.9 58 +9 +9 по сезону 1028.9 930.0 +13.8
21 19.10 штиль 0 н/о 10/4 600 м
[Cb cap Ac und]
+9.4 +2.1 60 +9 +9 тепло 1029.4 930.4
00 20.10 штиль 0
{4}
н/о 10/6 600 м
[Cb cap Ac und]
+8.1 +2.9 70 +8 +8 тепло 1030.4 930.8
03 20.10 штиль 0 10 км {ливн. осадки} 9/4 600 м
[Cb cap Ac trans]
+9.8 +2.6 61 +9 +10 по сезону 1029.2 930.3
06 20.10 С 1 10 км ясно +14.8 +0.6 38 +16 +23 тепло 1026.3 929.3 +8.0 0.0
09 20.10 С 1 10 км ясно +16.0 +1.6 38 +17 +22 тепло 1022.6 926.3
12 20.10 С 2 10 км 3/0
[Cs]
+13.4 +4.1 53 +13 +13 тепло 1021.9 924.9
15 20.10 штиль 0 н/о 4/0
[Ci fib]
+8.6 +4.5 75 +8 +8 по сезону 1021.5 923.0 +17.0
18 20.10 штиль 0 н/о ясно +6.3 +3.4 82 +5 +5 по сезону 1019.6 920.5 +17.0
21 20.10 штиль 0 н/о ясно +5.5 +2.5 81 +5 +5 по сезону 1017.1 918.0
00 21.10 штиль 0
{4}
н/о ясно +4.5 +1.4 80 +4 +4 по сезону 1017.0 917.5

 

Местоположение метеостанции Алматы (Алматинская область, Казахстан): широта 43.23 долгота 76.93 высота над уровнем моря 851 м.

В архиве по умолчанию представлена погода в Алматы за последнюю неделю. Архивные данные за месяц целиком и за предыдущие месяцы, начиная с января 2011 года, Вы можете получить, выбрав интересующий диапазон дат из раскрывающегося списка и нажав кнопку "Ввод!".

Внимание! Время в таблицах - всемирное. Для получения местного времени необходимо прибавить поправку, которая в Алматы равна 6 ч.

Смотрите также архив погоды в соседних городах и на ближайших метеорологических станциях:

Погода в Алматы АМС (Алматинская область, Казахстан) (4 км)
Погода в Каменском плато (Алматинская область, Казахстан) (6 км)
Погода в Медеу (Алматинская область, Казахстан) (12 км)
Погода в Карасайском (Алматинская область, Казахстан) (15 км)
Погода в Шымбулаке (Алматинская область, Казахстан) (16 км)
Погода в Большом Алматинском озере (Алматинская область, Казахстан) (18 км)
Погода в Альмереке (Алматинская область, Казахстан) (21 км)
Погода в Коныролене (Алматинская область, Казахстан) (24 км)
Погода в Рыскулово (Алматинская область, Казахстан) (30 км)
Погода в Илийском (Алматинская область, Казахстан) (33 км)

Пояснения к столбцам:

Ветер - указаны скорость ветра в м/с - средняя за 10 мин, порывы в срок и между сроками (в фигурных скобках) и направление, откуда дует ветер: С - северный, СВ - северо-восточный, В - восточный, ЮВ - юго-восточный, Ю - южный, ЮЗ - юго-западный, З - западный, СЗ - северо-западный.
Видимость - горизонтальная дальность видимости в метрах или километрах. При видимости от 1 до 10 км при отсутствии осадков обычно наблюдается дымка, при ухудшении видимости до 1 км и менее - туман. В сухую погоду видимость может ухудшаться дымом, пылью или мглою.
Явления - указаны атмосферные явления, наблюдавшиеся в срок или в последний час перед сроком; фигурными скобками обозначены явления, наблюдавшиеся между сроками (за 1-3 часа до срока); квадратными скобками обозначены град или гололедные отложения с указанием их диаметра в мм.
Облачность - указаны через наклонную черту общая и нижняя облачность в баллах и высота нижней границы облаков в метрах; квадратными скобками обозначены формы облаков: Ci - перистые, Cs - перисто-слоистые, Cc - перисто-кучевые, Ac - высококучевые, As - высокослоистые, Sc - слоисто-кучевые, Ns - слоисто-дождевые, Cu - кучевые, Cb - кучево-дождевые. Подробнее классификацию облаков см. в Атласе облаков (PDF).
T - Температура воздуха - температура, измеренная на высоте 2 м над землей.
Td - Температура точки росы - температура, при понижении до которой содержащийся в воздухе водяной пар достигнет насыщения.
f - Относительная влажность воздуха - влажноcть воздуха, измеренная на высоте 2 м над землей.
Te - Эффективная температура - температура, которую ощущает одетый по сезону человек в тени. Характеристика душности погоды. При расчете учитывается влияние влажности воздуха и скорости ветра на теплоощущения человека.
Tes - Эффективная температура на солнце - температура, которую ощущает человек, с поправкой на солнечный нагрев. Характеристика знойности погоды. Зависит от высоты солнца над горизонтом, облачности и скорости ветра. Ночью, в пасмурную погоду, а также при ветре 12 м/с и более поправка равна нулю.
P - Атмосферное давление - приведенное к уровню моря атмосферное давление.
Po - Атмосферное давление - измеренное на уровне метеостанции атмосферное давление.
Tmin - Минимальная температура - минимум температуры воздуха на высоте 2 м над землей.
Tmax - Максимальная температура - максимум температуры воздуха на высоте 2 м над землей.
R - Количество осадков - Количество выпавших осадков за период времени, мм. При наведении курсора мыши на число - период времени, за который выпало указанное количество осадков.
R24 - Количество осадков - Количество выпавших осадков за 24 часа, мм.
S - Снежный покров - Высота снежного покрова, см. При наведении курсора мыши на число - состояние снежного покрова и степень покрытия местности в баллах.